User: anonymous   Login
Location: Caltech
(34.1382°N, 118.1253°W)
Time: 22:16:39
(UTC-07:00)
Language:

Cosmos 1975 - Orbit

View from above orbital plane
View from above orbital plane
View from above satellite
View from above satellite

Ground track
Ground track

The orbit data is extracted from the following two-line orbital elements,

1 19573U 88093A   15179.88669993  .00001215  00000-0  88780-4 0  9998
2 19573 082.5216 320.7683 0013889 221.7961 138.2205 15.02734197451726
Epoch (UTC): 28 June 2015 21:16:50
Eccentricity: 0.0013889
inclination: 82.5216°
perigee height: 549 km
apogee height: 568 km
right ascension of ascending node: 320.7683°
argument of perigee: 221.7961°
revolutions per day: 15.02734197
mean anomaly at epoch: 138.2205°
orbit number at epoch: 45172

The dashed part of the orbit path shows where the satellite is in the earth's shadow,  

DLR